Solomon, AZ

9:26 AM MST on September 26, 2016 (GMT -0700)
Safford Regional

Weather History for KSAD - February, 2013

Change the Weather History Date:

Sunday, February 3, 2013

  Actual Average Record
Temperature  
Mean Temperature 58 °F -  
Max Temperature 64 °F 62 °F 76 °F (1963)
Min Temperature 51 °F 28 °F 5 °F (2011)
Degree Days  
Heating Degree Days 8    
Growing Degree Days 8 (Base 50)    
Moisture  
Dew Point 20 °F    
Average Humidity 26    
Maximum Humidity 38    
Minimum Humidity 14    
Precipitation  
Precipitation 0.00 in - - ()
Sea Level Pressure  
Sea Level Pressure 30.01 in    
Wind  
Wind Speed 8 mph (SE)    
Max Wind Speed 14 mph    
Max Gust Speed -    
Visibility 10 miles    
Events      
Averages and records for this station are not official NWS values.
T = Trace of Precipitation, MM = Missing Value Source: NWS Daily Summary

Daily Weather History Graph

Daily Weather History Graph

Search for Another Location

Airport or City:

Trip Planner

Search our weather history database for the weather conditions in past years. The results will help you decide how hot, cold, wet, or windy it might be!

Date:

Astronomy

Feb. 03, 2013 Rise Set
Actual Time 7:11 AM MST 5:53 PM MST
Civil Twilight 6:46 AM MST 6:19 PM MST
Nautical Twilight 6:16 AM MST 6:48 PM MST
Astronomical Twilight 5:47 AM MST 7:17 PM MST
Moon 12:42 AM MST (2/3) 11:35 AM MST (2/3)
Length of Visible Light 11h 32m
Length of Day
10h 41m
Waning Gibbous, 48% of the Moon is Illuminated
Feb 3
Waning Gibbous
Feb 10
New
Feb 17
First Quarter
Feb 25
Full
Mar 4
Last Quarter

Hourly Weather History & Observations

Time (MST) Temp. Dew Point Humidity Pressure Visibility Wind Dir Wind Speed Gust Speed Precip Events Conditions
12:51 AM 51.1 °F 21.0 °F 31% 30.13 in 10.0 mi East 9.2 mph - N/A   Clear
1:51 AM 51.1 °F 21.0 °F 31% 30.12 in 10.0 mi East 8.1 mph - N/A   Clear
2:51 AM 51.1 °F 21.9 °F 32% 30.10 in 10.0 mi ESE 9.2 mph - N/A   Clear
3:51 AM 51.1 °F 21.9 °F 32% 30.09 in 10.0 mi ESE 9.2 mph - N/A   Clear
4:51 AM 51.1 °F 21.9 °F 32% 30.06 in 10.0 mi ESE 9.2 mph - N/A   Clear
5:51 AM 51.1 °F 21.9 °F 32% 30.06 in 10.0 mi SE 12.7 mph - N/A   Clear
6:51 AM 51.1 °F 21.9 °F 32% 30.08 in 10.0 mi SE 11.5 mph - N/A   Clear
7:51 AM 51.1 °F 21.9 °F 32% 30.09 in 10.0 mi ESE 8.1 mph - N/A   Clear
8:51 AM 54.0 °F 21.9 °F 29% 30.09 in 10.0 mi ESE 13.8 mph - N/A   Clear
9:51 AM 55.9 °F 23.0 °F 28% 30.08 in 10.0 mi ESE 12.7 mph - N/A   Partly Cloudy
10:51 AM 60.1 °F 18.0 °F 20% 30.07 in 10.0 mi SE 8.1 mph - N/A   Scattered Clouds
11:51 AM 62.1 °F 17.1 °F 18% 30.04 in 10.0 mi SSW 4.6 mph - N/A   Clear
12:51 PM 64.0 °F 14.0 °F 14% 29.99 in 10.0 mi SW 5.8 mph - N/A   Scattered Clouds
1:51 PM 64.0 °F 12.9 °F 14% 29.94 in 10.0 mi Calm Calm - N/A   Partly Cloudy
2:51 PM 64.0 °F 12.9 °F 14% 29.93 in 10.0 mi South 4.6 mph - N/A   Overcast
3:51 PM 64.0 °F 14.0 °F 14% 29.90 in 10.0 mi South 5.8 mph - N/A   Clear
4:51 PM 64.0 °F 14.0 °F 14% 29.90 in 10.0 mi Calm Calm - N/A   Clear
5:51 PM 62.1 °F 17.1 °F 18% 29.91 in 10.0 mi Calm Calm - N/A   Overcast
6:51 PM 55.9 °F 19.0 °F 24% 29.94 in 10.0 mi East 4.6 mph - N/A   Overcast
7:51 PM 54.0 °F 19.9 °F 26% 29.94 in 10.0 mi NE 4.6 mph - N/A   Mostly Cloudy
8:51 PM 55.9 °F 19.0 °F 24% 29.95 in 10.0 mi Calm Calm - N/A   Overcast
9:51 PM 54.0 °F 25.0 °F 33% 29.95 in 10.0 mi Calm Calm - N/A   Overcast
10:51 PM 53.1 °F 27.0 °F 37% 29.94 in 10.0 mi WNW 5.8 mph - N/A   Overcast
11:51 PM 53.1 °F 28.0 °F 38% 29.93 in 10.0 mi North 4.6 mph - 0.00 in   Mostly Cloudy